カタログに戻る

TITAN 3C TRANSTAGE DEB

運用中GEO
NORAD 33510·DEBRIS·🇺🇸 United States

打ち上げ Sep 26, 1968 から Cape Canaveral Space Force Station

Loading…

TLE

最新Source: Space-Track

元期: Sep 14, 2026, 17:44 UTC

1 33510U 68081L   26257.73956744 -.00000217  00000-0  00000-0 0  9993
2 33510   2.2308  55.5616 0060425 301.3693  13.0242  1.01832606  8017

AllMySatでTITAN 3C TRANSTAGE DEBをリアルタイム追跡

Download on the App Store